This is the latest recevied weather packets stored in our database for station/object 2E0RGX-13. If no packets are shown the sender has not sent any weather packets the latest 10 day(s).
| Time | Temp. | Humidity | Pressure | Rain* | Wind** | Luminosity | Snow |
|---|---|---|---|---|---|---|---|
| 1778061685 | 11.67° C | 62% | 1010 hPa | 0 mm | - | 2 W/m² | - |
| 1778061381 | 11.67° C | 61% | 1010 hPa | 0 mm | - | 3 W/m² | - |
| 1778061078 | 11.67° C | 60% | 1010 hPa | 0 mm | - | 2 W/m² | - |
| 1778060774 | 11.67° C | 59% | 1010.1 hPa | 0 mm | - | 3 W/m² | - |
| 1778060470 | 12.22° C | 60% | 1010.1 hPa | 0 mm | - | 2 W/m² | - |
| 1778060166 | 12.22° C | 60% | 1010.1 hPa | 0 mm | - | 5 W/m² | - |
| 1778059862 | 11.67° C | 60% | 1010 hPa | 0 mm | - | 4 W/m² | - |
| 1778059558 | 11.67° C | 60% | 1010.1 hPa | 0 mm | - | 4 W/m² | - |
| 1778059254 | 11.67° C | 59% | 1009.8 hPa | 0 mm | - | 5 W/m² | - |
| 1778058950 | 11.67° C | 61% | 1009.8 hPa | 0 mm | - | 4 W/m² | - |
| 1778058646 | 11.67° C | 60% | 1009.8 hPa | 0 mm | - | 4 W/m² | - |
| 1778058342 | 11.67° C | 62% | 1009.9 hPa | 0 mm | - | 3 W/m² | - |
| 1778058038 | 11.67° C | 62% | 1009.8 hPa | 0 mm | - | 3 W/m² | - |
| 1778057734 | 11.67° C | 63% | 1009.9 hPa | 0 mm | - | 3 W/m² | - |
| 1778057430 | 11.11° C | 65% | 1009.6 hPa | 0 mm | - | 4 W/m² | - |
| 1778057126 | 11.11° C | 64% | 1009.7 hPa | 0 mm | - | 4 W/m² | - |
| 1778056822 | 11.11° C | 65% | 1010 hPa | 0 mm | - | 4 W/m² | - |
| 1778056518 | 10.56° C | 66% | 1009.9 hPa | 0 mm | - | 3 W/m² | - |
| 1778056214 | 10.56° C | 67% | 1009.6 hPa | 0 mm | - | 3 W/m² | - |
| 1778055910 | 10.56° C | 68% | 1009.7 hPa | 0 mm | - | 3 W/m² | - |
| 1778055606 | 10.56° C | 67% | 1009.8 hPa | 0 mm | - | 2 W/m² | - |
| 1778055302 | 10.56° C | 67% | 1009.7 hPa | 0 mm | - | 3 W/m² | - |
| 1778054998 | 11.11° C | 68% | 1009.7 hPa | 0 mm | - | 3 W/m² | - |
| 1778054694 | 10.56° C | 69% | 1009.7 hPa | 0 mm | - | 3 W/m² | - |
| 1778054390 | 10° C | 70% | 1009.8 hPa | 0 mm | - | 3 W/m² | - |
* Rain latest hour (hover to see other rain measurements)
** Current wind speed in m/s (hover to see current wind gust speed)